EHI
0 0 0 0 0 0 0 0 0 0 0 0 0 0 0 0 0 0 0 0 0 0 1 3 4 5 8 11 13 14 15 15 12 10 10 10 10 10 10 9 6 4 2 1 1 1 2 3 3
0 0 0 0 0 0 0 0 0 0 0 0 0 0 0 0 0 0 0 0 0 1 2 3 4 6 8 11 12 14 15 15 13 10 9 9 9 9 10 9 7 5 4 4 2 2 3 3 3
0 0 0 0 0 0 0 0 0 0 0 0 0 0 0 0 0 0 0 0 0 1 2 2 4 7 9 11 12 13 14 14 12 10 8 7 8 8 9 9 9 8 7 5 3 3 3 4 4
0 0 0 0 0 0 0 0 0 0 0 0 0 0 0 0 0 0 0 0 0 0 1 2 4 8 10 11 12 13 13 13 11 9 8 7 6 7 7 8 9 9 7 5 4 3 4 5 5
0 0 0 0 0 0 0 0 0 0 0 0 0 0 0 0 0 0 0 0 0 0 1 3 5 8 10 10 11 12 12 12 11 9 8 7 6 5 6 7 8 8 7 5 4 3 4 5 5
0 0 0 0 0 0 0 0 0 0 0 0 0 0 0 0 0 0 0 0 0 0 0 2 5 7 9 10 11 10 10 11 11 9 8 8 6 4 4 6 6 6 6 5 4 4 4 4 4
0 0 0 0 0 0 0 0 0 0 0 0 0 0 0 0 0 0 0 0 0 0 0 1 3 5 7 9 10 9 7 8 9 8 7 7 5 4 3 4 4 5 5 5 4 4 4 3 3
0 0 0 0 0 0 0 0 0 0 0 0 0 0 0 0 0 0 0 0 0 0 0 1 2 4 5 6 7 7 5 5 7 7 6 5 4 3 3 3 4 5 5 5 4 3 3 2 1
0 0 0 0 0 0 0 0 0 0 0 0 0 0 0 0 0 0 0 0 0 0 0 0 1 3 3 3 3 3 3 4 5 6 5 4 3 3 3 3 3 5 6 5 3 2 1 1 0
0 0 0 0 0 0 0 0 0 0 0 0 0 0 0 0 0 0 0 0 0 0 0 0 1 2 3 1 0 1 1 1 3 4 3 3 3 3 2 2 2 4 4 3 1 1 0 0 0
0 0 0 0 0 0 0 0 0 0 0 0 0 0 0 0 0 0 0 0 0 1 0 0 1 2 2 1 0 0 0 0 1 1 1 3 4 3 2 1 1 1 1 1 0 0 0 0 0
0 0 0 0 0 0 0 0 0 0 0 0 0 0 0 0 0 0 0 0 0 0 0 0 0 1 2 1 0 0 0 0 0 0 1 2 4 3 2 1 0 0 0 0 0 0 0 0 0
0 0 0 0 0 0 0 0 0 0 0 0 0 0 0 0 0 0 0 0 0 0 0 0 0 1 2 1 0 0 0 0 0 0 0 1 2 1 1 1 0 0 0 0 0 0 0 0 0
0 0 0 0 0 0 0 0 0 0 0 0 0 0 0 0 0 0 0 0 0 0 0 0 0 1 2 2 1 0 0 0 0 0 0 0 0 0 0 0 0 0 0 0 0 0 0 0 0
0 0 0 0 0 0 0 0 0 0 0 0 0 0 0 0 0 0 0 0 0 0 0 0 0 1 2 2 1 0 0 0 0 0 0 0 0 0 0 0 0 0 0 0 0 0 0 0 0
0 0 0 0 0 0 0 0 0 0 0 0 0 0 0 0 0 0 0 0 0 0 0 0 0 0 1 1 1 0 0 0 0 0 0 0 0 0 0 0 0 0 0 0 0 0 0 0 0
0 0 0 0 0 0 0 0 0 0 0 0 0 0 0 0 0 0 0 0 0 0 0 0 0 0 0 0 1 0 0 0 0 0 0 0 0 0 0 0 0 0 0 0 0 0 0 0 0
0 0 0 0 0 0 0 0 0 0 0 0 0 0 0 0 0 0 0 0 0 0 0 0 0 0 0 0 0 0 0 0 0 0 0 0 0 0 0 0 0 0 0 0 0 0 0 0 0
0 0 0 0 0 0 0 0 0 0 0 0 0 0 0 0 0 0 0 0 0 0 0 0 0 0 0 0 0 0 0 0 0 0 0 0 0 0 0 0 0 0 0 0 0 0 0 0 0
0 0 0 0 0 0 0 0 0 0 0 0 0 0 0 0 0 0 0 0 0 0 0 0 0 0 0 0 0 0 0 0 0 0 0 0 0 0 0 0 0 0 0 0 0 0 0 0 0
0 0 0 0 0 0 0 0 0 0 0 0 0 0 0 0 0 0 0 0 0 0 0 0 0 0 0 0 0 0 0 0 0 0 0 0 0 0 0 0 0 0 0 0 0 0 0 0 0
0 0 0 0 0 0 0 0 0 0 0 0 0 0 0 0 0 0 0 0 0 0 0 0 0 0 0 0 0 0 0 0 0 0 0 0 0 0 0 0 0 0 0 0 0 0 0 0 0
0 0 0 0 0 0 0 0 0 0 0 0 0 0 0 0 0 0 0 0 0 0 0 0 0 0 0 0 0 0 0 0 0 0 0 0 0 0 0 0 0 0 0 0 0 0 0 0 0
0 0 0 0 0 0 0 0 0 0 0 0 0 0 0 0 0 0 0 0 0 0 0 0 0 0 0 0 0 0 0 0 0 0 0 0 0 0 0 0 0 0 0 0 0 0 0 0 0
0 0 0 0 0 0 0 0 0 0 0 0 0 0 0 0 0 0 0 0 0 0 0 0 0 0 0 0 0 0 0 0 0 0 0 0 0 0 0 0 0 0 0 0 0 0 0 0 0
0 0 0 0 0 0 0 0 0 0 0 0 0 0 0 0 0 0 0 0 0 0 0 0 0 0 0 0 0 0 0 0 0 0 0 0 0 0 0 0 0 0 0 0 0 0 0 0 0
0 0 0 0 0 0 0 0 0 0 0 0 0 0 0 0 0 0 0 0 0 0 0 0 0 0 0 0 0 0 0 0 0 0 0 0 0 0 0 0 0 0 0 0 0 0 0 0 0
0 0 0 0 0 0 0 0 0 0 0 0 0 0 0 0 0 0 0 0 0 0 0 0 0 0 0 0 0 0 0 0 0 0 0 0 0 0 0 0 0 0 0 0 0 0 0 0 0
0 0 0 0 0 0 0 0 0 0 0 0 0 0 0 0 0 0 0 0 0 0 0 0 0 0 0 0 0 0 0 0 0 0 0 0 0 0 0 0 0 0 0 0 0 0 0 0 0
0 0 0 0 0 0 0 0 0 0 0 0 0 0 0 0 0 0 0 0 0 0 0 0 0 0 0 0 0 0 0 0 0 0 0 0 0 0 0 0 0 0 0 0 0 0 0 0 0
Wind_Speed
7 4 2 4 5 3 3 4 2 1 1 1 2 4 5 4 3 4 1 3 5 5 4 6 7 8 9 10 10 11 11 11 11 12 12 12 13 13 13 13 13 13 13 14 14 14 14 14 15
3 2 4 5 4 2 5 4 4 4 3 2 3 3 4 2 1 4 2 2 5 5 4 4 6 8 9 10 10 11 11 11 11 11 12 12 12 13 13 12 12 13 13 13 14 14 14 14 14
3 2 4 4 4 6 5 4 6 4 1 1 2 3 3 2 2 2 1 4 5 5 4 4 6 7 9 10 10 11 11 11 11 11 11 12 12 12 12 12 12 12 13 13 13 14 13 13 13
3 4 4 2 6 6 5 4 2 1 1 1 3 3 2 2 1 1 2 5 6 4 3 4 7 7 8 9 10 10 11 11 11 11 11 11 12 12 12 12 12 11 12 13 13 13 13 13 13
4 4 2 3 7 4 3 4 2 1 0 1 2 4 1 3 2 3 4 5 6 4 3 4 6 7 7 8 9 10 10 11 11 11 11 11 11 11 11 11 11 11 12 12 13 12 12 13 13
4 4 3 6 7 3 3 4 2 2 1 1 2 3 2 2 3 3 4 4 4 4 4 4 6 6 6 7 8 9 10 10 10 10 10 10 10 10 11 11 11 11 11 12 12 12 12 12 12
4 3 4 5 4 4 3 2 1 2 1 1 1 4 1 1 1 2 4 4 4 4 3 2 3 4 5 6 6 7 8 9 10 10 10 9 9 10 10 10 10 11 11 11 11 11 11 12 12
4 4 3 4 4 4 1 1 1 2 2 1 2 5 3 3 1 3 4 5 4 3 3 2 2 2 3 3 6 7 7 8 9 9 9 8 8 8 9 8 10 10 10 10 11 11 11 11 12
3 2 6 5 5 3 0 1 2 2 1 2 2 1 2 5 5 5 4 4 3 3 2 2 2 2 2 3 4 5 6 6 7 7 8 7 4 4 5 6 9 9 9 10 10 11 11 11 11
3 5 7 3 2 2 1 1 1 1 2 2 3 4 3 6 6 6 5 4 3 2 1 1 2 2 2 2 3 2 3 3 3 3 4 3 3 3 4 6 8 8 8 8 9 10 10 8 5
3 5 2 2 1 0 1 1 1 1 1 1 1 1 4 5 5 5 5 4 4 3 2 1 2 2 2 2 2 2 2 2 3 3 3 3 3 3 3 2 4 5 6 4 5 5 4 4 3
1 2 1 1 1 1 1 1 1 0 3 1 1 3 5 5 5 5 5 4 3 2 2 1 2 2 2 3 2 2 2 2 2 2 3 3 2 2 2 2 2 3 2 3 3 3 4 5 4
3 2 1 0 1 1 1 2 1 3 2 2 3 4 4 4 4 4 4 3 3 2 2 1 1 3 3 3 3 3 2 2 2 2 2 3 3 3 2 2 2 3 2 3 3 3 4 5 4
1 1 2 2 1 2 2 4 2 5 1 2 3 2 3 3 3 1 1 2 2 3 2 1 2 2 3 3 3 3 2 2 2 2 2 3 3 3 3 3 2 2 2 3 3 3 4 4 4
0 1 3 2 2 1 1 4 7 4 1 0 1 1 1 2 1 1 2 3 4 3 2 2 3 3 3 3 3 3 2 2 2 2 2 2 3 3 3 3 2 2 3 4 4 3 4 4 4
1 1 4 3 2 2 2 8 4 1 2 2 1 1 1 1 1 2 2 2 2 2 2 2 3 3 3 3 3 2 2 3 2 2 2 2 3 3 3 3 2 2 3 3 4 3 4 4 4
1 2 5 3 2 1 3 7 3 1 1 2 2 1 1 2 2 2 2 2 1 2 3 3 3 3 3 3 3 3 2 2 2 2 2 2 3 3 3 3 2 3 3 3 4 3 4 5 4
4 4 4 4 1 0 3 6 3 2 1 2 2 2 1 2 3 3 2 1 1 2 2 3 3 3 3 3 2 2 2 2 2 2 2 2 2 3 3 3 3 3 3 3 3 4 3 4 5
3 3 5 4 1 1 5 7 6 3 2 2 2 2 2 3 2 2 3 1 1 1 1 2 3 3 3 2 2 2 2 1 1 1 2 2 3 3 3 3 4 4 3 4 4 4 5 4 4
3 4 5 4 2 2 4 7 6 3 3 2 2 3 3 3 3 3 3 2 1 0 1 1 1 3 4 3 3 2 2 1 1 1 1 2 3 3 3 3 3 4 4 4 5 5 3 3 3
3 4 5 4 3 2 2 6 4 2 1 1 2 2 2 1 2 3 3 2 1 1 1 1 1 2 3 3 2 2 2 2 1 1 1 1 2 3 3 3 3 3 4 5 5 5 5 5 2
4 3 4 4 1 3 1 5 5 2 2 3 3 3 3 2 2 2 3 3 2 2 1 1 1 1 2 3 3 4 4 3 2 2 1 1 2 2 3 3 3 4 3 4 4 4 2 5 4
4 4 3 2 2 2 1 3 7 1 3 4 4 4 3 3 2 2 2 2 2 1 0 1 1 1 2 3 4 4 4 2 1 2 2 1 1 2 2 3 3 3 3 4 4 3 2 3 4
2 3 4 3 2 4 4 4 6 3 4 3 2 3 3 3 3 3 3 2 2 2 1 0 0 1 1 2 4 4 4 3 3 3 3 2 1 1 2 3 3 3 3 4 4 4 3 3 4
4 4 4 5 2 5 2 3 7 4 2 2 2 3 3 3 3 4 4 3 2 2 2 2 0 1 1 2 3 4 4 4 5 4 3 3 2 2 3 3 3 3 3 3 3 4 3 4 4
0 4 4 4 4 5 2 6 5 2 1 0 1 2 3 3 3 3 4 3 2 2 2 2 1 1 1 1 2 3 3 3 3 3 3 4 3 3 3 4 4 3 3 3 3 3 3 3 4
1 2 3 3 1 3 5 6 6 2 2 2 3 3 4 4 3 3 3 3 3 2 1 1 1 1 1 2 2 2 2 3 3 3 3 3 3 3 3 3 4 4 4 4 4 3 3 3 3
1 3 3 3 2 4 6 5 5 4 4 3 3 3 4 5 4 4 4 4 3 2 2 1 1 1 1 2 2 2 2 2 2 2 2 2 3 3 3 4 4 4 4 4 4 3 3 4 3
1 1 2 2 3 4 4 7 4 5 4 3 3 3 3 4 4 4 4 4 3 3 3 2 2 2 2 2 2 2 2 2 2 2 2 2 2 3 4 4 4 4 4 4 4 4 5 5 4
4 4 5 4 4 4 3 9 3 2 2 1 2 3 3 3 4 3 3 3 3 4 4 2 2 3 3 2 2 2 2 2 2 2 3 3 3 3 4 4 5 5 5 5 5 5 5 5 5
Wind_Direction
334 342 47 56 59 56 233 246 233 234 209 209 126 109 118 124 142 161 150 115 119 140 154 149 136 132 130 126 122 118 114 111 108 107 106 106 104 101 99 100 100 99 97 95 93 91 89 87 87
339 4 56 65 106 197 250 242 235 238 206 132 73 82 85 84 67 106 96 139 133 138 137 141 133 132 134 130 127 123 120 116 112 110 109 108 106 103 102 100 102 102 99 97 96 94 92 90 89
337 53 88 94 161 200 214 219 217 240 269 118 81 52 101 127 108 145 182 147 131 132 129 134 125 130 137 134 130 127 125 120 116 113 112 112 110 107 105 101 100 101 99 99 98 96 93 91 90
55 51 59 106 220 222 204 215 195 182 348 22 117 85 56 27 150 184 127 129 125 126 128 134 121 126 133 137 134 131 129 124 121 118 116 115 113 111 108 105 100 100 101 102 100 97 94 92 90
62 82 95 228 238 244 240 254 242 192 284 338 121 136 125 354 35 92 106 120 127 125 123 135 125 123 126 134 136 134 131 128 125 122 121 118 116 113 111 107 106 102 104 104 102 99 95 93 90
68 82 148 224 237 244 257 256 253 260 248 302 113 144 163 358 61 87 95 103 119 129 126 131 131 126 124 126 136 136 132 129 127 124 123 121 117 116 113 112 110 106 105 106 103 100 97 95 92
120 129 195 212 232 246 249 267 228 228 239 271 146 135 165 320 21 92 88 88 95 109 115 114 126 132 129 123 123 133 132 129 129 127 121 118 116 115 114 114 112 110 105 106 103 99 96 93 91
136 128 207 214 213 238 262 302 279 246 244 335 96 142 203 221 146 92 80 74 82 82 91 87 95 110 119 126 123 121 124 127 125 122 118 115 115 114 113 114 112 110 105 105 104 99 96 92 88
108 128 217 212 198 216 240 297 317 0 85 60 57 105 213 135 122 100 81 66 72 72 75 83 86 98 112 118 121 116 119 119 119 117 113 106 100 103 107 111 111 110 104 102 104 98 95 90 85
122 205 226 215 188 184 230 253 272 17 24 39 32 24 82 122 133 130 132 137 137 145 123 100 103 101 117 121 111 103 98 102 92 97 106 103 100 100 103 110 110 106 101 95 99 95 92 84 79
165 208 215 246 264 250 288 314 332 127 269 247 236 183 137 129 137 147 157 162 169 165 155 130 129 127 121 117 114 101 94 92 93 97 97 97 93 93 87 95 99 94 91 83 92 88 84 84 83
190 250 188 243 263 296 278 276 319 274 235 256 170 140 143 148 159 167 171 169 154 146 160 118 141 131 121 119 121 114 111 112 107 108 107 110 108 106 110 106 109 105 105 98 96 104 96 91 89
233 252 314 354 32 322 326 283 246 277 290 24 79 102 138 159 172 179 168 151 137 155 154 139 137 136 129 121 121 115 119 125 123 108 109 118 125 129 127 122 114 111 111 109 102 107 103 99 96
206 224 272 279 299 300 268 274 252 262 298 45 82 126 172 176 175 148 125 149 167 177 162 154 134 134 128 125 128 130 132 127 123 114 103 122 129 134 132 127 122 118 117 117 112 113 110 104 101
276 337 318 279 246 256 4 286 246 250 215 114 121 154 184 190 155 161 192 192 195 186 166 165 145 122 128 130 129 129 131 128 127 129 120 115 124 137 138 136 133 132 125 120 112 102 109 105 98
46 235 264 266 215 224 185 254 269 222 179 231 218 169 242 260 230 220 213 209 195 164 168 171 143 131 131 130 136 134 134 131 130 130 126 121 124 136 136 137 138 138 131 126 126 117 119 109 105
4 241 250 274 215 177 193 253 289 269 167 242 252 229 244 283 302 284 240 213 178 173 173 167 152 148 144 130 122 124 129 130 130 127 127 133 130 137 140 138 138 139 132 128 134 125 132 125 115
234 242 251 256 270 190 231 257 289 295 217 251 269 269 272 283 290 307 298 255 191 169 172 164 154 154 150 138 116 108 110 122 120 126 126 132 138 139 137 139 144 143 138 127 129 131 126 130 127
237 239 255 263 286 255 242 262 278 271 264 273 281 290 279 269 294 337 346 340 55 73 118 162 166 163 152 157 166 160 173 168 136 117 119 133 138 144 140 145 149 148 148 147 139 133 134 124 126
251 253 263 289 314 264 263 272 276 253 238 237 248 273 286 315 336 340 353 360 39 146 165 159 176 173 169 174 180 172 166 163 146 115 112 133 140 152 151 143 157 157 149 145 147 141 142 142 147
258 236 257 272 324 334 318 295 284 304 279 293 287 286 306 303 322 328 333 337 349 348 219 197 186 170 173 165 141 128 103 78 78 129 157 135 141 153 147 150 161 160 157 161 164 158 153 158 167
270 273 269 269 293 282 214 283 285 279 307 316 314 316 310 316 327 333 330 331 318 282 251 193 178 159 168 158 152 155 161 170 195 188 168 142 141 148 141 151 164 160 159 162 171 165 163 159 163
262 301 294 263 211 288 276 236 284 316 285 291 293 299 307 317 326 336 331 312 304 298 273 217 180 162 160 163 160 166 171 171 143 145 140 162 166 156 146 151 162 163 167 163 166 160 158 164 162
302 352 13 33 85 265 234 208 276 250 248 282 309 319 315 322 330 336 345 349 344 353 10 327 174 189 168 168 169 174 171 166 151 152 167 178 186 174 168 163 164 170 173 167 172 169 170 171 158
38 64 17 354 351 254 231 213 251 260 260 227 261 300 310 325 346 354 354 348 347 352 4 13 7 235 204 185 184 187 184 178 175 178 181 183 189 192 193 178 175 181 179 167 169 169 183 176 166
254 132 158 215 247 284 291 236 252 269 278 215 293 329 343 344 348 354 352 348 341 342 353 359 359 316 250 208 210 196 191 187 190 190 188 191 200 205 193 185 178 178 175 171 172 173 191 179 177
146 195 176 148 277 279 272 287 299 289 337 360 357 358 347 336 339 341 348 351 345 336 315 318 343 330 275 236 227 210 193 188 194 201 198 199 201 197 187 186 180 175 179 178 175 182 189 179 186
160 151 105 133 206 260 279 268 259 258 269 300 325 329 333 344 346 342 342 343 342 334 325 335 337 325 298 240 230 222 214 210 205 202 206 209 205 191 185 187 185 178 180 180 175 186 186 178 189
143 149 156 167 185 202 265 267 241 215 215 247 281 307 322 327 325 328 333 334 338 347 350 346 340 337 333 298 255 229 228 218 206 209 219 219 210 193 192 193 190 188 185 182 185 193 180 184 192
193 193 166 181 235 212 230 268 286 212 216 239 298 317 321 319 318 321 326 336 347 348 344 328 321 322 314 303 289 243 236 225 216 224 228 223 217 199 193 192 191 195 193 191 198 195 187 189 197